TimeMST,TemperatureF,Dew PointF,Humidity,Sea Level PressureIn,VisibilityMPH,Wind Direction,Wind SpeedMPH,Gust SpeedMPH,PrecipitationIn,Events,Conditions,WindDirDegrees,DateUTC
12:54 AM,23.0,12.9,65,30.01,10.0,South,3.5,-,N/A,,Clear,170,2013-01-08 07:54:00
1:54 AM,19.9,12.0,71,30.04,10.0,SSE,4.6,-,N/A,,Clear,150,2013-01-08 08:54:00
2:54 AM,19.0,12.0,74,30.03,10.0,West,4.6,-,N/A,,Clear,280,2013-01-08 09:54:00
3:54 AM,16.0,10.9,81,30.04,10.0,ESE,3.5,-,N/A,,Clear,110,2013-01-08 10:54:00
4:54 AM,12.9,9.0,84,30.06,7.0,Calm,Calm,-,N/A,,Clear,0,2013-01-08 11:54:00
5:54 AM,12.0,7.0,80,30.12,9.0,Calm,Calm,-,N/A,,Clear,0,2013-01-08 12:54:00
6:54 AM,12.9,8.1,81,30.15,10.0,SSE,3.5,-,N/A,,Clear,160,2013-01-08 13:54:00
7:54 AM,12.9,9.0,84,30.18,8.0,SSE,5.8,-,N/A,,Clear,160,2013-01-08 14:54:00
8:54 AM,21.9,15.1,75,30.15,10.0,South,3.5,-,N/A,,Clear,190,2013-01-08 15:54:00
9:54 AM,28.9,16.0,58,30.17,10.0,Calm,Calm,-,N/A,,Clear,0,2013-01-08 16:54:00
10:54 AM,32.0,17.1,54,30.17,10.0,Variable,4.6,-,N/A,,Clear,0,2013-01-08 17:54:00
11:54 AM,35.1,16.0,46,30.15,10.0,NNW,5.8,-,N/A,,Clear,330,2013-01-08 18:54:00
12:54 PM,39.0,15.1,38,30.12,10.0,WNW,6.9,-,N/A,,Clear,300,2013-01-08 19:54:00
1:54 PM,41.0,14.0,33,30.11,10.0,West,6.9,-,N/A,,Clear,280,2013-01-08 20:54:00
2:54 PM,39.9,14.0,35,30.12,10.0,NW,4.6,-,N/A,,Clear,320,2013-01-08 21:54:00
3:54 PM,41.0,14.0,33,30.15,10.0,WNW,4.6,-,N/A,,Clear,300,2013-01-08 22:54:00
4:54 PM,39.9,12.9,33,30.17,10.0,West,4.6,-,N/A,,Clear,270,2013-01-08 23:54:00
5:54 PM,33.1,12.9,43,30.22,9.0,South,3.5,-,N/A,,Clear,190,2013-01-09 00:54:00
6:54 PM,30.0,12.0,47,30.25,10.0,WNW,5.8,-,N/A,,Clear,290,2013-01-09 01:54:00
7:54 PM,28.0,14.0,56,30.27,10.0,South,5.8,-,N/A,,Clear,180,2013-01-09 02:54:00
8:54 PM,27.0,15.1,61,30.27,10.0,WSW,5.8,-,N/A,,Clear,250,2013-01-09 03:54:00
9:54 PM,24.8,14.0,64,30.23,10.0,South,5.8,-,N/A,,Clear,170,2013-01-09 04:54:00
10:54 PM,26.1,14.0,60,30.29,10.0,South,4.6,-,N/A,,Clear,170,2013-01-09 05:54:00
11:54 PM,23.0,12.9,65,30.30,10.0,South,5.8,-,N/A,,Clear,170,2013-01-09 06:54:00